[[{"header":{"parameterUnit":"m.s-1","parameterCategory":1,"la1":30.2991,"la2":30.254,"lo1":-89.0895,"lo2":-89.0444,"dy":0.0017,"dx":0.0017,"nx":28,"ny":28,"refTime":"2025-01-21T03:00:00:Z","depth":0,"parameterNumber":2,"parameterNumberName":"U-component_of_WINDS"},"data":[0,0,0,0,0,0,0,0,0,0,0,0,0,0,0,0,0,0,0,0,0,0,0,0,0,0,0,0,0,0,0,0,0,0,0,0,0,0,0,0,0,0,0,0,0,0,0,0,0,0,0,0,0,0,0,0,0,0,-1.1939,-1.1938,0,-1.1838,-1.1837,-1.1836,-1.1723,-1.1721,-1.1719,-1.1718,-1.1614,-1.1613,-1.1611,0,0,0,0,0,0,0,0,0,0,0,0,0,-1.2032,-1.2031,-1.194,-1.1938,-1.1937,-1.1839,-1.1837,-1.1836,-1.1723,-1.1721,-1.1719,-1.1717,-1.1614,-1.1613,-1.1611,0,0,0,0,0,0,0,0,0,0,0,0,0,-1.1967,-1.203,-1.194,-1.1869,-1.1861,-1.1839,-1.1837,-1.1835,-1.1723,-1.1721,-1.1718,-1.1716,-1.1615,-1.1613,-1.1611,-1.165,0,0,-1.1606,-1.1605,0,0,0,0,0,0,0,0,-1.1971,-1.1964,-1.188,-1.1874,-1.1865,-1.179,-1.1831,-1.1773,-1.1724,-1.1776,-1.1718,-1.1715,-1.1675,-1.1668,-1.1654,-1.1645,-1.1641,-1.1605,-1.1604,-1.1603,-1.1603,0,0,0,0,0,0,0,-1.1976,-1.1968,-1.1899,-1.1879,-1.187,-1.1841,-1.1829,-1.182,-1.174,-1.1771,-1.1763,-1.1752,-1.167,-1.1656,-1.1651,-1.1639,-1.1605,-1.1604,-1.1603,-1.1602,-1.1654,-1.1656,0,0,0,0,0,0,-1.1991,-1.1972,-1.1903,-1.1896,-1.1913,-1.1841,-1.1828,-1.1817,-1.174,-1.1726,-1.1754,-1.1747,-1.1661,-1.1653,-1.1647,-1.1686,-1.1604,-1.1602,-1.1601,-1.1652,-1.1655,-1.1657,0,0,0,0,0,0,-1.1994,-1.1986,-1.1907,-1.1932,-1.192,-1.1842,-1.1831,-1.1816,-1.1803,-1.1728,-1.1713,-1.1755,-1.1658,-1.1649,-1.1649,-1.1681,-1.1601,-1.1599,-1.1649,-1.1652,-1.1656,-1.1767,0,0,0,0,0,0,-1.1997,-1.1988,-1.2003,-1.1933,-1.1919,-1.1913,-1.1833,-1.1816,-1.18,-1.179,-1.1725,-1.1711,-1.1656,-1.1653,-1.1648,-1.1677,-1.1598,-1.1646,-1.165,-1.1655,-1.176,-1.1774,-1.1786,0,0,0,0,0,-1.2,-1.2039,-1.2004,-1.1996,-1.1936,-1.1915,-1.1906,-1.1842,-1.1803,-1.1817,-1.1768,-1.1713,-1.1678,-1.1654,-1.1647,-1.1677,-1.1643,-1.1649,-1.1654,-1.1754,-1.1771,-1.1785,0,0,0,0,0,0,-1.2115,-1.2028,-1.1989,-1.2006,-1.1969,-1.1896,-1.1912,-1.1862,-1.1835,-1.1826,-1.1746,-1.1733,-1.1742,-1.1709,-1.1683,-1.1709,-1.1653,-1.1657,-1.1731,-1.1746,-1.1759,-1.1767,-1.1596,0,0,0,0,0,-1.2142,-1.2132,-1.2057,-1.2079,-1.2062,-1.199,-1.1978,-1.1931,-1.1889,-1.1873,-1.1824,-1.1785,-1.1764,-1.1753,-1.173,-1.1753,-1.1737,-1.177,-1.1783,-1.1794,-1.1799,-1.1807,-1.182,-1.1675,-1.1675,-1.1675,0,0,-1.2198,-1.2149,-1.2148,-1.21,-1.2066,-1.2057,-1.1978,-1.1972,-1.1964,-1.1872,-1.1869,-1.1832,-1.1782,-1.1794,-1.1796,-1.1766,-1.1835,-1.1801,-1.181,-1.1809,-1.1814,-1.1828,-1.184,-1.1679,-1.1679,-1.1678,0,0,-1.2296,-1.2258,-1.2272,-1.2238,-1.2186,-1.2137,-1.2141,-1.2074,-1.2046,-1.2041,-1.1971,-1.196,-1.1927,-1.1894,-1.1873,-1.1954,-1.1903,-1.1949,-1.2017,-1.2025,-1.2036,-1.2046,-1.2074,-1.2086,-1.1954,-1.1954,-1.1954,0,-1.2372,-1.2356,-1.2285,-1.2283,-1.2263,-1.2178,-1.219,-1.216,-1.2104,-1.2092,-1.2059,-1.2014,-1.1975,-1.1976,-1.1996,-1.1982,-1.1982,-1.1957,-1.2041,-1.205,-1.2058,-1.2084,-1.2095,-1.196,-1.196,-1.1959,-1.1958,0,-1.2452,-1.2442,-1.2459,-1.2406,-1.2388,-1.2393,-1.2321,-1.2311,-1.2264,-1.2219,-1.2214,-1.2163,-1.2128,-1.2124,-1.2079,-1.2118,-1.2101,-1.2056,-1.1998,-1.2079,-1.2102,-1.2111,-1.1969,-1.1967,-1.1965,-1.1963,0,0,-1.2623,-1.2528,-1.2535,-1.2509,-1.2444,-1.2434,-1.2434,-1.2399,-1.2391,-1.2354,-1.2351,-1.2323,-1.228,-1.2256,-1.2205,-1.2213,-1.2279,-1.2165,-1.2163,-1.2188,-1.2317,-1.2353,-1.2366,-1.2243,-1.2244,-1.2246,-1.2321,0,-1.271,-1.2706,-1.264,-1.2654,-1.2642,-1.2559,-1.2558,-1.2518,-1.2474,-1.2457,-1.2408,-1.239,-1.2333,-1.2318,-1.2321,-1.2271,-1.2304,-1.2264,-1.2239,-1.2239,-1.2256,-1.2378,-1.2417,-1.2491,-1.233,-1.2332,-1.2333,0,-1.2812,-1.2779,-1.2793,-1.2724,-1.2717,-1.2718,-1.2679,-1.2664,-1.2615,-1.2582,-1.2554,-1.2496,-1.2489,-1.2434,-1.2422,-1.2396,-1.2381,-1.2354,-1.2356,-1.2352,-1.2292,-1.2379,-1.2513,-1.2525,-1.2346,-1.2345,-1.2344,0,-1.2935,-1.2895,-1.2897,-1.2877,-1.2797,-1.28,-1.2766,-1.2714,-1.2697,-1.2662,-1.2649,-1.2614,-1.2595,-1.2568,-1.2502,-1.2467,-1.2497,-1.2436,-1.2469,-1.2471,-1.2481,-1.2482,-1.2617,-1.2471,-1.247,-1.247,-1.247,0,-1.304,-1.3051,-1.2951,-1.2953,-1.2961,-1.2884,-1.2895,-1.2853,-1.2807,-1.2798,-1.2722,-1.2715,-1.2627,-1.2609,-1.2556,-1.2554,-1.2546,-1.2519,-1.2505,-1.2526,-1.253,-1.2517,-1.251,-1.2473,-1.2472,-1.2472,-1.2471,0,-1.3181,-1.3114,-1.311,-1.3034,-1.3015,-1.3025,-1.2959,-1.2957,-1.2907,-1.2896,-1.2888,-1.281,-1.2785,-1.2715,-1.2672,-1.2636,-1.2649,-1.2622,-1.2666,-1.2657,-1.2694,-1.2692,-1.2826,-1.2839,-1.2685,-1.2687,-1.2688,0,-1.3253,-1.3259,-1.3183,-1.3171,-1.3141,-1.3124,-1.3104,-1.3027,-1.3009,-1.2951,-1.2956,-1.2924,-1.2895,-1.2857,-1.2796,-1.2761,-1.2734,-1.2783,-1.2729,-1.2749,-1.2735,-1.2736,-1.2735,-1.2796,-1.2798,-1.28,-1.2801,0,-1.3388,-1.3354,-1.3329,-1.3293,-1.3272,-1.3239,-1.3202,-1.3196,-1.3109,-1.3093,-1.3066,-1.3043,-1.2997,-1.2966,-1.2922,-1.2885,-1.2829,-1.2818,-1.2824,-1.2847,-1.2872,-1.2859,-1.27,-1.2816,-1.2815,-1.2814,-1.2813,-1.2812,-1.3497,-1.3498,-1.3444,-1.3418,-1.3382,-1.3348,-1.3341,-1.3289,-1.3266,-1.3223,-1.3177,-1.3155,-1.3101,-1.3035,-1.3003,-1.2982,-1.2953,-1.2962,-1.2964,-1.2967,-1.2977,-1.2874,-1.2974,-1.2973,-1.2973,-1.2972,-1.2972,0,-1.3628,-1.3589,-1.3566,-1.3516,-1.3495,-1.3442,-1.3397,-1.3383,-1.3364,-1.3319,-1.3291,-1.3258,-1.3227,-1.3161,-1.3123,-1.312,-1.3092,-1.3112,-1.3113,-1.3105,-1.3006,-1.3005,-1.3135,-1.3135,-1.3135,-1.3135,-1.3135,-1.3135,-1.3695,-1.3693,-1.3652,-1.3631,-1.359,-1.3568,-1.3546,-1.3514,-1.3477,-1.3445,-1.3418,-1.3375,-1.3321,-1.3278,-1.3246,-1.3227,-1.3216,-1.3245,-1.3218,-1.3128,-1.3112,-1.3098,-1.3096,-1.3243,-1.3244,-1.3319,-1.3319,-1.332]},{"header":{"parameterUnit":"m.s-1","parameterCategory":1,"la1":30.2991,"la2":30.254,"lo1":-89.0895,"lo2":-89.0444,"dy":0.0017,"dx":0.0017,"nx":28,"ny":28,"refTime":"2025-01-21T03:00:00:Z","depth":0,"parameterNumber":3,"parameterNumberName":"V-component_of_WINDS"},"data":[0,0,0,0,0,0,0,0,0,0,0,0,0,0,0,0,0,0,0,0,0,0,0,0,0,0,0,0,0,0,0,0,0,0,0,0,0,0,0,0,0,0,0,0,0,0,0,0,0,0,0,0,0,0,0,0,0,0,-9.3069,-9.307,0,-9.321,-9.3211,-9.3213,-9.3064,-9.3059,-9.3053,-9.3047,-9.3188,-9.3197,-9.3206,0,0,0,0,0,0,0,0,0,0,0,0,0,-9.2667,-9.2675,-9.3068,-9.307,-9.3072,-9.3209,-9.3211,-9.3213,-9.3065,-9.3058,-9.3051,-9.3045,-9.3185,-9.3196,-9.3207,0,0,0,0,0,0,0,0,0,0,0,0,0,-9.2828,-9.2678,-9.3068,-9.3015,-9.3011,-9.3209,-9.3211,-9.3214,-9.3067,-9.3058,-9.305,-9.3042,-9.3182,-9.3195,-9.3208,-9.3464,0,0,-9.325,-9.3256,0,0,0,0,0,0,0,0,-9.2819,-9.2843,-9.3021,-9.3019,-9.3015,-9.3111,-9.3121,-9.3298,-9.3069,-9.3046,-9.3047,-9.3037,-9.3169,-9.3183,-9.3228,-9.3471,-9.3477,-9.3251,-9.326,-9.3265,-9.3269,0,0,0,0,0,0,0,-9.2808,-9.2836,-9.3124,-9.3024,-9.302,-9.2982,-9.2996,-9.3154,-9.3154,-9.3047,-9.3037,-9.3056,-9.3166,-9.3216,-9.3231,-9.3479,-9.3251,-9.3263,-9.3271,-9.3277,-9.3939,-9.3948,0,0,0,0,0,0,-9.2803,-9.2828,-9.312,-9.3128,-9.2894,-9.2997,-9.3012,-9.3089,-9.3152,-9.3153,-9.3063,-9.3048,-9.3197,-9.3215,-9.3235,-9.354,-9.3265,-9.3278,-9.3286,-9.393,-9.3941,-9.3951,0,0,0,0,0,0,-9.2795,-9.2831,-9.3114,-9.2975,-9.3008,-9.3013,-9.31,-9.3096,-9.3146,-9.3164,-9.3162,-9.3114,-9.3191,-9.3216,-9.3409,-9.3543,-9.3284,-9.3297,-9.3918,-9.3933,-9.3946,-9.4151,0,0,0,0,0,0,-9.2784,-9.2829,-9.2927,-9.2979,-9.3016,-9.3288,-9.3109,-9.3105,-9.317,-9.3152,-9.3211,-9.3213,-9.3186,-9.3389,-9.3423,-9.3557,-9.3307,-9.3906,-9.3925,-9.3942,-9.4133,-9.4171,-9.4203,0,0,0,0,0,-9.2771,-9.2978,-9.2933,-9.2969,-9.314,-9.3295,-9.3317,-9.3283,-9.3181,-9.328,-9.3291,-9.3211,-9.3522,-9.341,-9.3446,-9.3587,-9.3898,-9.392,-9.394,-9.4117,-9.4163,-9.4202,0,0,0,0,0,0,-9.2941,-9.2984,-9.2934,-9.3165,-9.3228,-9.327,-9.3393,-9.3333,-9.3425,-9.3404,-9.3356,-9.3371,-9.3576,-9.36,-9.3475,-9.3838,-9.3693,-9.3723,-9.3815,-9.3859,-9.3894,-9.3885,-9.3319,0,0,0,0,0,-9.3006,-9.313,-9.316,-9.3361,-9.3395,-9.3389,-9.3456,-9.3424,-9.3486,-9.3512,-9.3537,-9.36,-9.3712,-9.3786,-9.389,-9.4134,-9.4145,-9.4249,-9.4284,-9.4313,-9.4339,-9.4471,-9.4517,-9.4021,-9.402,-9.402,0,0,-9.3141,-9.3179,-9.326,-9.3396,-9.3441,-9.357,-9.3413,-9.3555,-9.365,-9.3533,-9.3718,-9.3739,-9.3805,-9.4025,-9.4123,-9.4052,-9.4478,-9.434,-9.4363,-9.4374,-9.4497,-9.4544,-9.4586,-9.4035,-9.4032,-9.403,0,0,-9.3452,-9.3494,-9.3666,-9.3715,-9.3785,-9.378,-9.3821,-9.3873,-9.3883,-9.4068,-9.3983,-9.4094,-9.4287,-9.4339,-9.439,-9.4721,-9.4651,-9.4756,-9.4941,-9.507,-9.5109,-9.5143,-9.5263,-9.5306,-9.4782,-9.4782,-9.4783,0,-9.3611,-9.3803,-9.3762,-9.3912,-9.3974,-9.3875,-9.4049,-9.4097,-9.4198,-9.4242,-9.416,-9.4402,-9.444,-9.4671,-9.4752,-9.4796,-9.4842,-9.475,-9.5107,-9.5141,-9.5172,-9.5285,-9.533,-9.4795,-9.4793,-9.4792,-9.4791,0,-9.3994,-9.4128,-9.4259,-9.436,-9.4437,-9.4598,-9.4581,-9.4663,-9.4624,-9.4627,-9.4816,-9.4858,-9.4969,-9.5021,-9.4984,-9.5248,-9.5201,-9.5114,-9.4968,-9.5233,-9.5338,-9.5381,-9.4813,-9.4808,-9.4804,-9.4801,0,0,-9.4419,-9.4496,-9.4545,-9.459,-9.466,-9.4762,-9.4918,-9.5028,-9.5099,-9.5171,-9.5301,-9.5467,-9.5387,-9.5446,-9.5413,-9.5526,-9.5787,-9.5425,-9.5426,-9.5492,-9.6081,-9.6147,-9.6198,-9.574,-9.5748,-9.5755,-9.6075,0,-9.4733,-9.5006,-9.4974,-9.5234,-9.5357,-9.5265,-9.54,-9.5457,-9.5464,-9.5569,-9.5575,-9.5694,-9.5579,-9.5614,-9.5722,-9.5733,-9.5905,-9.5709,-9.586,-9.5866,-9.5849,-9.6253,-9.6324,-9.6625,-9.6116,-9.6123,-9.6128,0,-9.5137,-9.5225,-9.5499,-9.555,-9.5601,-9.5724,-9.5822,-9.5923,-9.5986,-9.5982,-9.6049,-9.5996,-9.6151,-9.6002,-9.6215,-9.6082,-9.6142,-9.6156,-9.6167,-9.6181,-9.6015,-9.6279,-9.672,-9.6766,-9.6193,-9.6187,-9.6183,0,-9.5421,-9.5608,-9.5796,-9.5837,-9.5901,-9.599,-9.6021,-9.6075,-9.6143,-9.6228,-9.6272,-9.6373,-9.6429,-9.6509,-9.6485,-9.6378,-9.6704,-9.6551,-9.6705,-9.6707,-9.678,-9.6776,-9.7238,-9.6816,-9.6815,-9.6814,-9.6813,0,-9.5777,-9.5948,-9.5925,-9.6041,-9.6229,-9.6189,-9.6377,-9.6395,-9.6444,-9.6561,-9.6486,-9.6597,-9.6558,-9.6666,-9.6648,-9.6828,-9.6853,-9.6855,-9.6848,-9.6863,-9.6863,-9.6903,-9.6882,-9.6826,-9.6823,-9.6821,-9.6819,0,-9.6127,-9.6118,-9.6317,-9.6362,-9.6377,-9.6515,-9.6552,-9.6661,-9.6661,-9.681,-9.6842,-9.6843,-9.6967,-9.695,-9.7088,-9.7075,-9.73,-9.7267,-9.728,-9.7273,-9.7429,-9.7415,-9.7933,-9.8,-9.7534,-9.7538,-9.7542,0,-9.6356,-9.6486,-9.6545,-9.6619,-9.6656,-9.6775,-9.6845,-9.681,-9.6886,-9.6967,-9.7066,-9.7183,-9.7275,-9.7477,-9.7489,-9.7593,-9.7563,-9.7738,-9.7579,-9.759,-9.7568,-9.7562,-9.7575,-9.777,-9.7775,-9.7779,-9.7783,0,-9.6763,-9.6752,-9.6856,-9.696,-9.7045,-9.7124,-9.7195,-9.726,-9.7231,-9.732,-9.7446,-9.7518,-9.7659,-9.7777,-9.7875,-9.7904,-9.7841,-9.7833,-9.7874,-9.7891,-9.7894,-9.7897,-9.7368,-9.7821,-9.7818,-9.7815,-9.7813,-9.7811,-9.7061,-9.7172,-9.7232,-9.735,-9.74,-9.7468,-9.7573,-9.7587,-9.7692,-9.7806,-9.7778,-9.7921,-9.7979,-9.8105,-9.8145,-9.8256,-9.8192,-9.8252,-9.8267,-9.8283,-9.8302,-9.7875,-9.8273,-9.8272,-9.8271,-9.827,-9.8269,0,-9.7466,-9.7499,-9.7608,-9.7711,-9.7805,-9.7736,-9.7811,-9.7893,-9.8021,-9.8081,-9.8174,-9.8319,-9.8433,-9.8454,-9.8561,-9.8646,-9.8619,-9.8676,-9.867,-9.8678,-9.8353,-9.8307,-9.8696,-9.8696,-9.8695,-9.8695,-9.8695,-9.8695,-9.7687,-9.7873,-9.7869,-9.8078,-9.8109,-9.825,-9.8299,-9.8362,-9.841,-9.8576,-9.8671,-9.8684,-9.8728,-9.8839,-9.894,-9.8942,-9.8986,-9.9055,-9.9047,-9.8743,-9.8701,-9.866,-9.8617,-9.9065,-9.9065,-9.9363,-9.9366,-9.9368]}]]